Location: Alincthun
(50.7310°N, 1.8022°E)
Time: 19:32:51
(UTC+00:00)

Cosmos 1943 Rocket - Pass Details

Date: 17 February 2020
Orbit: 813 x 842 km, 71.0° (Epoch: 05 April)

Event Time Altitude Azimuth Distance (km) Brightness Sun altitude
Exits shadow 04:30:48 18° 334° (NNW) 1,895 3.9 -24.5°
Maximum altitude 04:34:56 77° 59° (ENE) 840 2.2 -23.9°
Drops below altitude 10° 04:40:26 10° 146° (SE) 2,399 4.8 -23.0°
Sets 04:42:51 0° 148° (SSE) 3,329 5.6 -22.6°
